Waarnemingen

Advertentie
Mijn weer
Lerwick, Groot Brittannië (3005): temperatuur & dauwpunt: 19.11.2017 01:00:00 - 25.11.2017 01:00:00 (GMT)Lerwick, Groot Brittannië (3005): windsnelheid & windstoten: 19.11.2017 01:00:00 - 25.11.2017 01:00:00 (GMT)Lerwick, Groot Brittannië (3005): windrichting: 19.11.2017 01:00:00 - 25.11.2017 01:00:00 (GMT)Lerwick, Groot Brittannië (3005): luchtdruk: 19.11.2017 01:00:00 - 25.11.2017 01:00:00 (GMT)Lerwick, Groot Brittannië (3005): zicht: 19.11.2017 01:00:00 - 25.11.2017 01:00:00 (GMT)Lerwick, Groot Brittannië (3005): Zonneschijnduur: 19.11.2017 01:00:00 - 25.11.2017 01:00:00 (GMT)Lerwick, Groot Brittannië (3005): neerslag: 19.11.2017 01:00:00 - 25.11.2017 01:00:00 (GMT)
Datum & Tijd tt [°C] td [°C] ff [km/u] ff [kn] fx [km/u] fx [kn] dd ppp [hPa] vv [km] sd [min] rr [mm]
25.11.2017 01:00:00 2,9 -0,1 46 25 59 32 W 994,3 30 0 0,2
25.11.2017 00:00:00 3,5 -1,1 37 20 65 35 W 994,6 35 - 0,8
24.11.2017 23:00:00 3,3 -0,5 29 16 67 36 W 994,8 18 0 0,2
24.11.2017 22:00:00 3,6 -0,6 22 12 54 29 W 994,4 25 0 0,0
24.11.2017 21:00:00 2,9 0,2 18 10 - - W 994,4 30 0 0,2
24.11.2017 20:00:00 2,5 0,8 21 11 - - WNW 994,6 16 0 0,6
24.11.2017 19:00:00 1,8 0,4 34 18 50 27 NW 994,2 5 0 1,0
24.11.2017 18:00:00 3,4 0,4 37 20 59 32 W 993,5 5 0 0,2
24.11.2017 17:00:00 3,8 0,3 39 21 55 30 W 992,8 30 0 0,6
24.11.2017 16:00:00 3,5 0,0 31 17 57 31 WZW 993,0 18 0 0,8
24.11.2017 15:00:00 4,5 -1,1 46 25 80 43 W 992,9 30 0 0,0
24.11.2017 14:00:00 3,7 0,6 42 23 74 40 W 992,8 23 6 0,6
24.11.2017 13:00:00 4,5 0,0 54 29 76 41 WZW 992,7 21 6 0,0
24.11.2017 12:00:00 4,9 -0,6 55 30 78 42 WZW 992,5 30 0 0,0
24.11.2017 11:00:00 4,7 -0,9 48 26 72 39 W 992,4 27 0 0,0
24.11.2017 10:00:00 3,8 -1,7 59 32 85 46 W 991,9 40 0 0,0
24.11.2017 09:00:00 4,4 0,1 59 32 80 43 WZW 991,1 24 0 0,0
24.11.2017 08:00:00 4,4 -0,1 54 29 91 49 W 990,5 30 0 -
24.11.2017 07:00:00 4,5 -0,9 55 30 80 43 W 989,8 25 0 0,0
24.11.2017 06:00:00 5,0 -1,0 57 31 87 47 W 988,8 30 0 -
24.11.2017 05:00:00 4,6 -2,5 59 32 83 45 W 988,2 20 0 0,0
24.11.2017 04:00:00 4,2 -1,8 55 30 78 42 W 987,7 25 0 0,8
24.11.2017 03:00:00 3,5 -0,2 57 31 80 43 W 987,5 30 0 0,0
24.11.2017 02:00:00 3,9 -1,2 54 29 80 43 W 987,0 35 0 0,0
24.11.2017 01:00:00 4,2 -2,0 59 32 78 42 W 986,6 30 0 0,0
24.11.2017 00:00:00 4,9 -3,1 48 26 76 41 W 986,1 20 - 0,2
23.11.2017 23:00:00 5,1 -3,3 52 28 72 39 W 985,6 25 0 0,0
23.11.2017 22:00:00 4,9 -2,3 48 26 72 39 W 985,3 30 0 0,0
23.11.2017 21:00:00 4,9 -3,8 52 28 68 37 W 984,6 35 0 0,0
23.11.2017 20:00:00 4,3 -3,0 44 24 72 39 W 984,5 35 0 0,0
23.11.2017 19:00:00 4,3 -3,1 46 25 61 33 W 983,8 27 0 0,0
23.11.2017 18:00:00 3,4 -2,7 41 22 54 29 W 983,3 50 0 0,0
23.11.2017 17:00:00 2,6 -0,3 24 13 55 30 W 982,5 18 0 0,0
23.11.2017 16:00:00 3,8 -2,0 34 18 - - WNW 981,1 40 0 0,0
23.11.2017 15:00:00 3,7 -1,4 26 14 - - WNW 980,2 30 0 0,2
23.11.2017 14:00:00 3,6 -0,1 24 13 - - NW 979,3 29 6 0,2
23.11.2017 13:00:00 2,4 0,0 21 11 - - WNW 978,6 10 36 0,2
23.11.2017 12:00:00 3,3 0,5 22 12 - - WNW 977,9 50 0 0,0
23.11.2017 11:00:00 2,5 -1,3 15 8 - - WNW 977,5 45 0 0,0
23.11.2017 10:00:00 2,4 -1,4 15 8 - - WNW 977,3 50 0 0,0
23.11.2017 09:00:00 2,4 -2,5 11 6 - - WNW 977,4 50 0 0,0
23.11.2017 08:00:00 2,4 -2,8 13 7 - - NNW 977,2 45 0 0,0
23.11.2017 07:00:00 2,1 -2,8 9 5 - - NNW 976,9 50 0 0,0
23.11.2017 06:00:00 1,8 -3,6 16 9 - - N 976,8 50 0 0,0
23.11.2017 05:00:00 1,7 -2,9 15 8 - - N 977,0 40 0 0,0
23.11.2017 04:00:00 1,9 -2,7 18 10 - - N 977,2 45 0 -
23.11.2017 03:00:00 2,2 -3,4 28 15 - - N 977,7 40 0 0,0
23.11.2017 02:00:00 2,5 -2,6 26 14 - - N 978,4 50 0 0,0
23.11.2017 01:00:00 3,3 -3,2 26 14 - - N 979,0 30 0 -
23.11.2017 00:00:00 3,3 -3,3 24 13 - - N 979,6 30 - 0,0
22.11.2017 23:00:00 3,0 -1,2 24 13 - - N 979,6 22 0 0,0
22.11.2017 22:00:00 3,0 -0,2 29 16 - - N 980,5 25 0 0,0
22.11.2017 21:00:00 2,8 -0,6 22 12 - - N 981,0 22 0 0,0
22.11.2017 20:00:00 4,1 -1,9 26 14 46 25 NNO 981,4 40 0 0,0
22.11.2017 19:00:00 4,2 -1,4 34 18 46 25 NNO 981,5 40 0 0,0
22.11.2017 18:00:00 3,8 -1,1 37 20 52 28 NNO 982,0 30 0 0,0
22.11.2017 17:00:00 4,0 -0,7 37 20 54 29 NNO 982,5 25 0 0,0
22.11.2017 16:00:00 4,1 0,2 39 21 52 28 NO 982,9 30 0 0,0
22.11.2017 15:00:00 3,9 0,7 39 21 55 30 NNO 983,1 30 0 0,0
22.11.2017 14:00:00 3,9 -0,1 39 21 55 30 NO 983,8 40 0 0,0
22.11.2017 13:00:00 3,6 1,4 46 25 67 36 NNO 983,9 12 0 0,2
22.11.2017 12:00:00 3,3 1,8 46 25 61 33 NNO 984,5 8 0 0,2
22.11.2017 11:00:00 3,4 1,9 46 25 74 40 NO 984,8 15 0 0,4
22.11.2017 10:00:00 3,4 1,3 52 28 80 43 NO 984,9 20 0 0,2
22.11.2017 09:00:00 3,3 0,9 61 33 85 46 NO 985,0 18 0 0,0
22.11.2017 08:00:00 2,9 0,8 63 34 93 50 NO 985,2 12 0 0,6
22.11.2017 07:00:00 2,8 0,9 70 38 94 51 ONO 985,3 10 0 0,4
22.11.2017 06:00:00 3,0 1,2 70 38 102 55 ONO 985,7 7 0 0,8
22.11.2017 05:00:00 2,9 1,7 67 36 104 56 ONO 986,0 4,0 0 0,8
22.11.2017 04:00:00 3,4 1,8 76 41 104 56 ONO 986,9 6 0 1,2
22.11.2017 03:00:00 3,4 2,1 80 43 100 54 ONO 986,9 4,0 0 1,6
22.11.2017 02:00:00 3,8 2,8 72 39 102 55 ONO 987,8 5 0 1,0
22.11.2017 01:00:00 4,1 2,9 72 39 100 54 O 988,8 5 0 1,2
22.11.2017 00:00:00 4,0 3,4 70 38 93 50 O 989,9 5 - 2,6
21.11.2017 23:00:00 4,3 3,2 65 35 91 49 O 991,5 4,0 0 2,2
21.11.2017 22:00:00 4,4 3,1 54 29 72 39 O 993,3 4,0 0 2,0
21.11.2017 21:00:00 4,1 3,0 44 24 63 34 O 995,2 8 0 1,0
21.11.2017 20:00:00 3,8 2,3 48 26 61 33 O 996,6 7 0 1,2
21.11.2017 19:00:00 3,9 2,2 44 24 57 31 O 998,3 12 0 0,6
21.11.2017 18:00:00 4,0 1,7 35 19 50 27 OZO 999,7 12 0 0,6
21.11.2017 17:00:00 4,2 1,3 26 14 - - OZO 1001,3 15 0 0,2
21.11.2017 16:00:00 4,4 1,4 29 16 48 26 OZO 1002,0 20 0 0,4
21.11.2017 15:00:00 5,3 0,9 26 14 - - OZO 1003,0 25 0 0,0
21.11.2017 14:00:00 4,6 1,7 18 10 - - ZZO 1004,1 40 0 0,2
21.11.2017 13:00:00 5,2 0,9 21 11 - - OZO 1005,0 35 0 0,0
21.11.2017 12:00:00 5,0 1,2 13 7 - - OZO 1006,2 25 0 0,2
21.11.2017 11:00:00 3,6 1,1 15 8 - - OZO 1007,2 10 0 -
21.11.2017 10:00:00 3,5 1,9 4 2 - - N 1007,7 18 0 0,4
21.11.2017 09:00:00 3,2 1,2 8 4 - - ONO 1008,3 30 0 0,0
21.11.2017 08:00:00 2,7 0,0 9 5 - - NNO 1008,4 30 0 0,0
21.11.2017 07:00:00 2,5 0,8 18 10 - - NNO 1009,1 40 0 0,2
21.11.2017 06:00:00 2,6 1,0 9 5 - - NO 1009,3 10 0 2,4
21.11.2017 05:00:00 2,8 1,4 9 5 - - N 1009,5 5 0 0,6
21.11.2017 04:00:00 2,9 1,2 16 9 - - NNW 1010,1 24 0 0,2
21.11.2017 03:00:00 3,2 0,4 8 4 - - N 1010,0 50 0 0,0
21.11.2017 02:00:00 3,3 -0,4 16 9 - - N 1010,5 45 0 0,0
21.11.2017 01:00:00 2,7 -0,4 16 9 - - N 1010,8 50 0 0,0
21.11.2017 00:00:00 2,8 -0,2 15 8 - - N 1011,2 45 - 0,0
20.11.2017 23:00:00 2,5 -0,4 16 9 - - N 1011,3 50 0 0,0
20.11.2017 22:00:00 2,9 0,0 11 6 - - N 1011,6 45 0 0,0
20.11.2017 21:00:00 2,3 0,7 13 7 - - N 1011,9 40 0 0,0
20.11.2017 20:00:00 2,7 1,2 4 2 - - NW 1011,5 40 0 0,0
20.11.2017 19:00:00 2,3 0,7 13 7 - - N 1011,6 45 0 0,0
20.11.2017 18:00:00 1,7 0,3 16 9 - - N 1011,5 50 0 0,0
20.11.2017 17:00:00 1,9 -0,6 15 8 - - N 1011,5 50 0 0,0
20.11.2017 16:00:00 1,6 -1,3 15 8 - - N 1011,8 45 0 0,0
20.11.2017 15:00:00 2,2 -1,2 15 8 - - N 1011,6 50 0 0,0
20.11.2017 14:00:00 3,2 -0,8 13 7 - - N 1011,4 50 6 0,0
20.11.2017 13:00:00 3,1 -0,8 13 7 - - N 1011,5 50 12 0,0
20.11.2017 12:00:00 3,4 0,0 9 5 - - NNO 1011,7 50 6 0,0
20.11.2017 11:00:00 2,4 0,1 15 8 - - NO 1012,0 25 0 0,0
20.11.2017 10:00:00 2,5 -0,3 9 5 - - NO 1012,0 50 0 0,0
20.11.2017 09:00:00 1,6 -1,0 15 8 - - N 1012,0 35 0 0,0
20.11.2017 08:00:00 0,8 -1,3 9 5 - - NNW 1011,8 35 0 0,0
20.11.2017 07:00:00 0,5 -1,1 11 6 - - NNW 1011,9 45 0 0,0
20.11.2017 06:00:00 0,5 -1,2 13 7 - - N 1012,1 50 0 0,0
20.11.2017 05:00:00 1,0 -1,8 15 8 - - N 1012,5 50 0 0,0
20.11.2017 04:00:00 0,6 -1,4 11 6 - - NNW 1012,9 50 0 0,0
20.11.2017 03:00:00 0,4 -2,5 13 7 - - N 1013,4 50 0 0,0
20.11.2017 02:00:00 0,6 -1,2 9 5 - - NNW 1014,2 50 0 0,0
20.11.2017 01:00:00 0,5 -2,2 9 5 - - NNW 1014,4 50 0 0,0
20.11.2017 00:00:00 1,3 -2,0 8 4 - - NW 1014,8 50 - 0,0
19.11.2017 23:00:00 1,9 -1,9 13 7 - - WNW 1015,1 50 0 0,0
19.11.2017 22:00:00 2,0 -1,1 13 7 - - NW 1015,4 50 0 0,0
19.11.2017 21:00:00 2,2 -0,7 15 8 - - WNW 1015,7 50 0 -
19.11.2017 20:00:00 1,5 -1,2 13 7 - - NNW 1015,8 50 0 0,0
19.11.2017 19:00:00 2,6 -2,6 15 8 - - NW 1015,8 50 0 0,0
19.11.2017 18:00:00 2,5 -1,8 15 8 - - NW 1016,0 40 0 0,2
19.11.2017 17:00:00 2,6 -0,8 11 6 - - NW 1016,1 40 0 0,0
19.11.2017 16:00:00 3,3 -0,5 16 9 - - NNW 1016,3 30 0 0,0
19.11.2017 15:00:00 3,2 -0,5 16 9 - - NNW 1016,3 20 12 0,0
19.11.2017 14:00:00 4,3 -0,2 16 9 - - NW 1016,2 25 18 0,0
19.11.2017 13:00:00 3,1 0,9 13 7 48 26 NW 1016,4 35 18 0,4
19.11.2017 12:00:00 4,6 0,0 15 8 - - NNW 1016,4 35 18 0,0
19.11.2017 11:00:00 4,7 0,3 15 8 - - NW 1016,4 35 36 0,0
19.11.2017 10:00:00 4,0 -0,4 15 8 - - NW 1016,2 20 48 0,0
19.11.2017 09:00:00 3,5 -1,3 22 12 - - NNW 1015,9 18 0 0,0
19.11.2017 08:00:00 3,8 -0,8 26 14 - - NNW 1015,4 18 0 0,0
19.11.2017 07:00:00 3,7 -1,3 24 13 - - NNW 1015,2 22 0 0,0
19.11.2017 06:00:00 4,5 -0,3 31 17 48 26 NNW 1015,0 19 0 0,0
19.11.2017 05:00:00 3,9 0,8 24 13 54 29 NNW 1014,8 20 0 0,0
19.11.2017 04:00:00 4,2 1,1 29 16 54 29 NNW 1014,2 20 0 0,2
19.11.2017 03:00:00 4,6 0,2 34 18 55 30 NNW 1013,4 22 0 0,0
19.11.2017 02:00:00 4,9 -0,6 35 19 55 30 NNW 1013,0 19 0 0,0
19.11.2017 01:00:00 5,0 -0,1 42 23 59 32 NNW 1012,9 16 0 0,0

tt = temperatuur
td = dauwpunt
ff = windsnelheid
fx = windstoten
dd = windrichting
ppp = luchtdruk
vv = zicht
sd = Zonneschijnduur
rr = neerslag

Weerstations in de omgeving